#timestamp,LO_Frequency,Hit,StdDev 
1690862415.8,286047001.2,N
1690862435.7,286047001.1,N
1690862455.5,286047000.7,N
1690862475.3,286046998.1,N
1690862495.2,286047000.6,N
1690862515.0,286047002.8,N
1690862515.9,286047002.8,N
1690862535.7,286046999.8,N
1690862555.6,286047000.3,N
1690862575.4,286047000.9,N
1690862595.3,286046998.5,N
1690862615.1,286047001.1,N
1690862616.0,286047001.1,N
1690862635.8,286047000.2,N
1690862655.7,286046999.7,N
1690862675.5,286047002.3,N
1690862695.3,286047001.5,N
1690862715.2,286047000.1,N
1690862735.0,286047002.1,N
1690862735.9,286047002.1,N
1690862755.8,286047002.8,N
1690862775.6,286047002.7,N
1690862795.4,286047000.0,N
1690862815.3,286047000.9,N
1690862835.1,286047000.6,N
1690862855.8,286046998.2,N
1690862875.7,286046998.1,N
1690862895.5,286046998.6,N
1690862915.4,286046998.1,N
1690862935.2,286046998.6,N
1690862955.0,286046998.4,N
1690862955.9,286046998.4,N
1690862975.8,286046998.9,N
1690862995.6,286046998.3,N
1690863015.4,286046998.3,N
1690863035.3,286046998.2,N
1690863055.1,286047000.7,N
1690863075.9,286047000.4,N
1690863095.7,286047000.4,N
1690863115.5,286046998.4,N
1690863135.4,286047000.6,N
1690863155.2,286047000.5,N
1690863175.0,286047000.4,N
1690863176.0,286047000.4,N
1690863195.8,286047002.7,N
1690863215.6,286046999.9,N
1690863235.5,286047001.2,N
1690863255.3,286046998.5,N
1690863275.1,286046998.8,N
1690863295.9,286047001.2,N
1690863315.7,286047000.7,N
1690863335.6,286047000.3,N
1690863355.4,286046999.7,N
1690863375.2,286047000.6,N
1690863395.1,286047000.1,N
1690863396.0,286047000.1,N
1690863415.8,286047002.8,N
1690863435.6,286046999.8,N
1690863455.5,286047001.2,N
1690863475.3,286047000.1,N
1690863495.2,286046999.9,N
1690863515.9,286047000.1,N
1690863535.7,286047000.5,N
1690863555.6,286046999.7,N
1690863575.4,286047000.0,N
1690863595.2,286047000.0,N
1690863615.1,286047001.0,N
1690863616.0,286047001.0,N
1690863635.8,286047000.1,N
1690863655.7,286047002.6,N
1690863675.5,286047002.5,N
1690863695.3,286047002.4,N
1690863715.2,286046999.8,N
1690863735.0,286047000.5,N
1690863735.9,286047000.5,N
1690863755.8,286047001.0,N
1690863775.6,286047002.4,N
1690863795.4,286047002.1,N
1690863815.3,286047002.7,N
1690863835.1,286046999.8,N
1690863836.0,286046999.8,N
1690863855.8,286047000.9,N
1690863875.7,286047001.1,N
1690863895.5,286047000.1,N
1690863915.3,286046999.9,N
1690863935.2,286047002.1,N
1690863955.0,286047002.6,N
1690863955.9,286047002.6,N
1690863975.8,286047000.1,N
1690863995.6,286047002.4,N
1690864015.4,286046999.7,N
1690864035.3,286047002.5,N
1690864055.1,286047000.3,N
1690864075.8,286047000.2,N
1690864095.7,286047000.0,N
1690864115.5,286047002.6,N
1690864135.4,286047002.5,N
1690864155.2,286047000.2,N
1690864175.0,286047002.3,N
1690864175.9,286047002.3,N
1690864195.8,286047002.3,N
1690864215.6,286047002.2,N
1690864235.5,286047002.2,N
1690864255.3,286047002.1,N
1690864275.1,286047002.1,N
1690864295.9,286047002.7,N
1690864315.7,286047002.3,N
1690864335.5,286046999.8,N
1690864355.4,286047002.8,N
1690864375.2,286046999.7,N
1690864395.1,286046999.8,N
1690864396.0,286046999.8,N
1690864415.8,286046999.8,N
1690864435.6,286046999.9,N
1690864455.5,286047002.8,N
1690864475.3,286047002.3,N
1690864495.1,286047002.7,N
1690864515.9,286047002.4,N
1690864535.7,286047002.3,N
1690864555.6,286047001.5,N
1690864575.4,286047002.0,N
1690864595.2,286047001.7,N
1690864615.1,286047002.1,N
1690864616.0,286047002.1,N
1690864635.8,286047001.9,N
1690864655.7,286047001.9,N
1690864675.5,286047002.8,N
1690864695.3,286046999.8,N
1690864715.2,286046999.7,N
1690864735.0,286047000.3,N
1690864735.9,286047000.3,N
1690864755.8,286046999.8,N
1690864775.6,286047001.6,N
1690864795.4,286047001.6,N
1690864815.3,286047001.9,N
1690864835.1,286047002.1,N
1690864855.9,286047004.4,Y
1690864875.7,286047002.7,P
1690864895.5,286047002.3,P
1690864915.4,286047000.9,N
1690864935.2,286047000.6,N
1690864955.0,286046999.9,N
1690864955.9,286046999.9,N
1690864975.8,286047000.3,N
1690864995.6,286047000.5,N
1690865015.5,286047000.2,N
1690865035.3,286047000.3,N
1690865055.1,286047002.4,N
1690865075.9,286047002.3,N
1690865095.7,286047000.9,N
1690865115.6,286047000.4,N
1690865135.4,286047000.0,N
1690865155.2,286046999.9,N
1690865175.1,286046999.9,N
1690865176.0,286046999.9,N
1690865195.8,286046999.7,N
1690865215.7,286046999.7,N
1690865235.5,286047000.3,N
1690865255.3,286047002.0,N
1690865275.2,286047002.0,N
1690865295.9,286047001.5,N
1690865315.7,286047001.3,N
1690865335.6,286047004.3,Y
1690865355.4,286047002.1,P
1690865375.3,286047002.1,P
1690865395.1,286047002.7,P
1690865396.0,286047002.7,Y
1690865415.8,286046998.5,P
1690865435.7,286046998.1,N
1690865455.5,286047000.3,N
1690865475.3,286046998.8,N
1690865495.2,286046999.4,N
1690865515.0,286046996.9,N
1690865515.9,286046996.9,N
1690865535.8,286046996.6,N
1690865555.6,286046997.2,N
1690865575.4,286046996.5,N
1690865595.3,286046999.0,N
1690865615.1,286046998.8,N
1690865635.8,286046996.9,N
1690865655.7,286046999.4,N
1690865675.5,286046999.5,N
1690865695.4,286046999.2,N
1690865715.2,286046998.7,N
1690865735.0,286046999.3,N
1690865735.9,286046999.3,N
1690865755.8,286046999.6,N
1690865775.6,286046996.8,N
1690865795.4,286046997.2,N
1690865815.3,286046999.0,N
1690865835.1,286046998.9,N
1690865855.9,286046996.9,N
1690865875.7,286046998.8,N
1690865895.5,286046996.5,N
1690865915.4,286046997.7,N
1690865935.2,286046995.0,Y
1690865955.0,286046998.9,P
1690865956.0,286046998.9,P
1690865975.8,286046998.8,P
1690865995.6,286046999.1,Y
